Location: ????????
(60.5836°N, 46.8459°E)
Time: 18:01:51
(UTC+00:00)

Daily predictions for brighter satellites

Satellite Brightness Start Highest point End
(mag) Time Altitude Azimuth Time Altitude Azimuth Time Altitude Azimuth
USA 234 3.8 13:30:02 10° E 13:36:29 56° SSE 13:42:56 10° WSW
Cosmos 909 Rocket 4.4 13:32:32 10° WNW 13:38:44 55° N 13:45:11 10° E
NOAA 6 4.2 13:34:37 10° SSE 13:39:47 82° WSW 13:45:02 10° NNW
Cosmos 2228 3.5 13:36:28 10° NNW 13:40:44 68° W 13:45:01 10° S
Landsat 5 4.2 13:37:43 10° NNE 13:41:13 30° E 13:44:38 10° SSE
IRAS Rocket 4.3 13:35:41 10° NNE 13:41:19 77° ESE 13:46:53 10° SSW
SL-24 R/B 4.4 13:36:54 10° SSE 13:41:34 72° ENE 13:46:51 10° NNW
CZ-2C R/B 3.7 13:37:27 10° SE 13:42:40 41° ENE 13:48:04 10° N
RESURS DK-1 2.5 13:39:47 10° SW 13:43:56 80° NW 13:48:06 10° NE
Cosmos 2082 4.2 13:38:55 10° WSW 13:44:34 59° NW 13:50:12 10° NE
Cosmos 2263 Rocket 2.3 13:41:25 10° SSW 13:47:05 78° SE 13:52:45 10° NE
NOSS 2-2 (D) 3.9 13:43:18 10° WNW 13:47:29 65° N 13:53:06 10° E
ARGOS 4.1 13:44:27 10° ESE 13:48:52 27° NE 13:53:20 10° N
Cosmos 2279 Rocket 4.2 13:42:35 10° NNW 13:48:54 85° WSW 13:55:11 10° S
Genesis I 3.7 13:46:41 10° WNW 13:50:29 46° N 13:54:20 10° ENE
Cosmos 1455 2.3 13:46:55 10° N 13:50:41 53° ENE 13:54:27 10° SSE
YAOGAN 6 3.3 13:48:09 10° S 13:51:45 59° W 13:55:24 10° NNW
USA 281 4.2 13:48:44 10° ENE 13:54:07 28° N 13:59:31 10° NW
OPS 0252 4.5 13:52:09 10° WNW 13:55:10 80° NNE 13:58:11 10° ESE
SL-16 R/B 3.8 13:50:04 10° NNE 13:55:33 35° NW 14:01:02 10° WSW
ISS -1.2 13:55:11 10° S 13:56:54 13° SSE 13:58:37 10° SE
Cosmos 1503 Rocket 4.2 13:52:03 10° SW 13:57:28 83° NW 14:02:53 10° NNE
H-2A R/B 2.9 13:53:30 10° NNE 13:57:31 32° E 14:01:27 10° SSE
Cosmos 2221 4.4 13:55:44 10° NNE 13:57:44 13° NE 13:59:34 10° ENE
Meteor 2-10 Rocket 3.7 13:53:10 10° NNW 13:58:43 83° WSW 14:04:00 10° SSE
Cosmos 1606 Rocket 4.5 13:54:25 10° NNW 13:58:43 55° W 14:03:03 10° S
Cosmos 1300 4.3 13:55:37 10° NNW 13:59:12 39° W 14:02:47 10° SSW
CZ-4C R/B 2.5 13:56:27 10° WSW 14:02:04 84° NNW 14:08:46 11° ENE
Cosmos 923 Rocket 4.5 13:59:18 10° NW 14:04:38 69° WSW 14:09:55 10° SSE
NOAA 11 4.3 13:59:18 10° SSE 14:04:49 90° NNE 14:10:21 10° NNW
GENESIS II 4.2 14:05:09 10° WSW 14:09:10 85° SSE 14:12:41 13° ENE
Cosmos 1680 Rocket 3.7 14:04:07 10° NW 14:09:24 77° WSW 14:14:37 10° SSE
CZ-2D R/B 3.5 14:05:46 10° SE 14:09:26 45° ENE 14:13:07 10° N
NOAA 12 4.5 14:04:14 10° S 14:09:28 71° WSW 14:14:45 10° NNW
Cosmos 1626 2.9 14:06:25 10° SSW 14:10:03 53° WNW 14:13:42 10° N
Cosmos 405 3.6 14:07:02 10° N 14:10:21 35° ENE 14:13:38 10° SE
SJ 16-02 2.0 14:06:53 10° S 14:10:52 35° ESE 14:14:53 10° NE
YAOGAN 1 3.2 14:08:17 10° SE 14:12:14 35° ENE 14:16:11 10° N
Cosmos 1892 Rocket 3.6 14:08:46 10° S 14:13:03 61° E 14:17:21 10° NNE
Cosmos 1674 4.5 14:10:11 10° SW 14:13:39 31° WNW 14:17:08 10° N
Cosmos 1833 Rocket 2.6 14:08:46 10° NW 14:14:25 77° NE 14:20:04 10° SE
Cosmos 1812 Rocket 3.7 14:12:24 10° N 14:16:44 52° ENE 14:21:00 10° SSE
Aureole 3 2.6 14:13:18 10° NNW 14:16:45 79° ENE 14:19:46 10° SSE
Cosmos 1048 Rocket 4.4 14:12:26 10° NNW 14:17:18 41° NE 14:22:10 10° ESE
Feng Yun 1-1 Rocket 4.2 14:11:51 10° SSE 14:17:22 72° ENE 14:23:04 10° NNW
Helios 1A Rocket 3.6 14:15:10 10° ESE 14:18:53 32° ENE 14:22:36 10° N
CZ-4C R/B 2.7 14:18:17 10° NNE 14:21:27 64° ESE 14:24:37 10° S
Okean O Rocket 2.0 14:18:13 10° S 14:22:38 69° WSW 14:27:04 10° NNW
Cosmos 1939 Rocket 2.8 14:20:06 10° SSE 14:24:10 82° ENE 14:28:12 10° NNW
H-2A R/B 3.6 14:20:20 10° S 14:24:27 50° W 14:28:45 10° NNW
SKYMED 2 4.4 14:22:17 10° NNE 14:26:07 29° E 14:29:55 10° SSE
Cosmos 968 Rocket 4.5 14:22:29 10° WSW 14:27:20 42° NW 14:32:15 10° NNE
SL-08 R/B 4.4 14:23:17 10° N 14:27:41 42° WNW 14:32:07 10° SW
COSMOS 2406 3.3 14:21:56 10° NW 14:27:47 88° SW 14:33:34 10° SE
SMAP 4.1 14:25:04 10° S 14:29:36 51° W 14:34:11 10° NNW
Cosmos 2082 Rocket 2.2 14:25:58 10° NW 14:31:43 67° NE 14:37:24 10° SE
Meteor 2-1 Rocket 4.4 14:26:20 10° NNW 14:31:55 75° WSW 14:37:24 10° S
Okean-O 2.8 14:27:59 10° SE 14:32:16 49° ENE 14:36:34 10° N
SL-14 R/B 4.4 14:29:07 10° SW 14:32:55 45° WNW 14:36:47 10° N
MOS 1 Rocket 3.9 14:30:06 10° NNE 14:33:52 28° E 14:37:37 10° SSE
NOSS 2-2 (C) 3.9 14:31:11 10° WNW 14:35:34 79° NNE 14:41:05 12° ESE
Cosmos 1844 Rocket 2.9 14:32:50 10° SSW 14:38:21 55° ESE 14:43:06 14° NE
CZ-4B R/B 2.2 14:36:27 18° NE 14:38:21 30° E 14:41:19 10° SSE
Cosmos 1844 4.0 14:33:18 10° S 14:38:45 48° ESE 14:43:26 14° NE
H-2A R/B 2.1 14:36:48 10° SE 14:41:50 58° ENE 14:47:01 10° NNW
Cosmos 2219 4.4 14:38:40 10° WNW 14:43:46 32° NNW 14:48:00 14° NE
Cosmos 1092 Rocket 4.1 14:39:25 10° SSE 14:45:18 49° E 14:51:12 10° NNE
Cosmos 1777 Rocket 4.1 14:41:05 10° SW 14:46:23 83° WNW 14:51:41 10° NNE
NOSS 3-4 (A) 3.7 14:40:16 10° W 14:46:29 72° N 14:51:32 19° ENE
NOSS 3-4 (C) 3.7 14:40:22 10° W 14:46:35 72° N 14:51:37 19° ENE
Cosmos 2227 Rocket 3.4 14:42:37 10° W 14:47:44 33° NNW 14:51:58 14° NE
Aureole 2 Rocket 2.1 14:45:36 10° SSW 14:48:44 87° NW 14:50:42 21° NNE
Cosmos 1703 3.5 14:46:41 10° SSE 14:50:24 45° E 14:53:58 11° NNE
CZ-4 R/B 1.2 14:46:47 10° SSE 14:50:46 68° ENE 14:54:42 10° NNW
COSMOS 2455 2.8 14:46:33 10° SW 14:52:35 77° SE 14:57:12 18° NE
ATLAS 5 CENTAUR R/B 1.8 14:48:47 10° WSW 14:53:12 80° NNW 14:56:27 22° ENE
Elektron 1 3.6 14:50:45 10° W 14:53:45 88° NNW 14:54:58 32° E
SJ-6B 4.1 14:53:58 23° NE 14:54:00 23° NE 14:57:12 10° N
Nadezhda 4 Rocket 3.9 14:49:01 10° S 14:55:13 78° E 15:01:24 10° NNE
SeaSat 1 2.6 14:50:57 13° NE 14:55:22 78° NW 15:00:19 10° SW
Cosmos 389 Rocket 3.2 14:52:17 10° N 14:55:32 31° ENE 14:55:58 30° ENE
EP 3 3.7 14:53:46 10° WNW 14:55:48 75° SSW 14:56:07 57° SE
Cosmos 1818 3.7 14:50:50 10° SW 14:56:11 59° SE 14:59:36 22° ENE
IRS-1C Rocket 4.1 14:51:43 10° SSE 14:57:00 85° WSW 15:02:19 10° NNW
NOSS 2-2 (E) 4.1 14:54:27 10° WNW 14:59:05 86° SSW 15:04:34 14° ESE
NOSS 7 (E) 4.1 14:56:24 10° WSW 14:59:31 75° NNW 15:00:37 36° ENE
Aureole 3 Rocket 2.2 14:56:41 10° NNW 14:59:45 86° ENE 15:03:11 10° SSE
Cosmos 1626 Rocket 3.5 14:55:51 10° S 15:00:15 66° E 15:04:42 10° NNE
CSL-04 Rocket 3.7 14:56:08 10° SE 15:01:32 61° ENE 15:07:00 10° NNW
USA 290 2.8 14:58:45 10° NW 15:01:57 59° WSW 15:05:06 10° SSE
Meteor 2-15 4.4 14:55:53 10° NNW 15:02:05 75° ENE 15:08:14 10° SSE
Meteor 1-24 Rocket 4.4 14:57:34 10° SW 15:02:44 51° WNW 15:07:59 10° NNE
Cosmos 990 Rocket 4.2 14:58:04 10° S 15:03:04 48° ESE 15:06:25 20° NE
Meteor 2-8 Rocket 4.5 14:57:56 10° NNW 15:04:04 85° W 15:10:12 10° S
ATLAS 2AS CENTAUR R/B 3.1 14:56:19 10° W 15:04:15 73° N 15:09:24 23° ENE
Cosmos 2278 Rocket 3.1 15:01:26 10° SSE 15:06:00 26° ESE 15:06:52 25° E
ERS-2 2.7 15:11:07 34° ESE 15:11:07 34° ESE 15:14:15 10° SSE
Cosmos 2297 Rocket 3.5 15:06:15 10° WNW 15:11:12 30° N 15:14:25 18° NE
PSLV R/B 4.5 15:10:06 29° ENE 15:11:27 36° E 15:15:22 10° SSE
Cosmos 1346 Rocket 4.2 15:08:27 10° SSE 15:10:23 22° SE 15:10:23 22° SE
NOSS 7 (H) 4.3 15:09:01 10° W 15:11:54 58° NNW 15:12:35 43° NE
deb Kosmos-1763 3.9 15:09:00 10° NNW 15:12:38 86° ENE 15:15:09 19° SE
USA-17 4.4 15:11:20 10° W 15:14:22 59° NNW 15:15:03 45° NE
COSMO-SKYMED 1 2.5 15:10:08 10° NNE 15:14:29 65° ESE 15:18:49 10° S
Landsat 5 4.3 15:13:08 10° N 15:16:56 46° WNW 15:20:37 10° SW
SL-08 RB Rocket 3.7 15:12:39 10° SE 15:17:02 56° ENE 15:21:26 10° NNW
Cosmos-2242 2.9 15:12:43 10° NNW 15:17:03 89° WSW 15:21:22 10° SSE
USA 234 3.4 15:15:47 23° ESE 15:20:04 68° S 15:26:37 10° W
Iridium 4 Rocket 3.6 15:14:42 10° N 15:20:23 89° E 15:25:33 10° S
ADEOS Rocket 4.3 15:15:01 10° NNE 15:20:27 35° NW 15:25:30 10° WSW
Resurs 01 Rocket 3.2 15:22:01 19° NNE 15:22:01 19° NNE 15:24:18 10° N
CZ-2C R/B 3.9 15:16:52 10° S 15:22:23 61° WSW 15:28:09 10° NNW
RESURS DK-1 3.8 15:18:49 10° W 15:22:30 30° NNW 15:24:33 20° NNE
Cosmos 44 3.7 15:17:55 10° SSW 15:22:43 50° SE 15:24:33 34° E
Okean 1-7 Rocket 4.3 15:18:20 10° SSW 15:22:51 57° WNW 15:27:23 10° N
Cosmos 1869 3.3 15:19:13 10° N 15:23:02 52° ENE 15:24:11 38° ESE
HJ-1C 3.2 15:20:35 14° SSE 15:23:24 77° ENE 15:26:48 10° NNW
Cosmos 1340 2.5 15:20:27 10° S 15:24:11 68° ESE 15:25:51 31° NNE
Cosmos 1417 Rocket 4.4 15:19:20 10° NNW 15:25:35 76° ENE 15:31:52 10° SSE
SJ-11-01 4.3 15:21:11 10° SSE 15:25:53 83° WSW 15:30:36 10° NNW
Cosmos 1758 Rocket 3.6 15:21:56 10° S 15:26:18 54° E 15:29:38 17° NNE
Genesis I 3.1 15:24:30 10° WNW 15:28:26 76° NNE 15:29:22 50° E
ARGOS 3.1 15:23:13 10° SSE 15:28:37 87° ENE 15:34:04 10° NNW
Cosmos 1553 Rocket 4.0 15:22:27 10° NNW 15:28:57 86° ENE 15:35:20 10° SSE
Ariane Rocket 3.3 15:28:27 34° E 15:29:57 44° ENE 15:34:47 10° NNW
CZ-2C R/B 3.3 15:30:46 33° E 15:30:46 33° E 15:35:28 10° SSE
Cosmos 2026 Rocket 3.9 15:24:31 10° S 15:30:40 72° E 15:36:58 10° NNE
Cosmos 2263 Rocket 3.1 15:26:06 10° W 15:31:30 43° NNW 15:35:17 19° NE
ISS -1.7 15:30:25 10° SW 15:32:51 18° S 15:33:16 18° S
H-2A R/B 2.9 15:29:23 10° NNE 15:33:44 52° WNW 15:37:58 10° SW
Meteor 2-15 Rocket 4.4 15:28:27 10° NNW 15:34:40 87° WSW 15:40:50 10° S
CZ-3B R/B 4.5 15:34:10 10° SW 15:36:07 15° SSW 15:39:20 10° SSE
Cosmos 2221 2.8 15:32:11 10° N 15:36:27 46° ENE 15:36:27 46° ENE
NOSS 2-1 (E) 4.2 15:34:19 10° SSW 15:36:37 30° SSE 15:36:37 30° SSE
USA 281 3.6 15:35:02 32° E 15:37:31 45° NE 15:43:42 10° NW
Cosmos 1328 3.7 15:33:41 10° SSW 15:37:41 90° E 15:40:23 20° NNE
NOSS 2-2 (D) 4.2 15:33:38 10° WNW 15:38:18 71° SSW 15:41:56 25° SE
Meteor 1-11 4.2 15:32:53 10° S 15:38:28 62° E 15:44:01 10° NNE
SL-24 R/B - RUBIN 2 4.5 15:31:49 10° SW 15:38:34 84° SE 15:41:48 32° ENE
Cosmos 909 Rocket 4.1 15:33:22 10° WNW 15:39:41 78° NNE 15:43:07 32° ESE
OBJECT-B 3.5 15:42:35 11° N 15:42:35 11° N 15:42:41 10° N
Cosmos 1602 Rocket 3.7 15:38:57 10° SSW 15:43:20 75° WNW 15:47:47 10° NNE
Cosmos 2315 Rocket 4.0 15:38:08 10° N 15:44:18 54° ENE 15:47:32 28° SE
YAOGAN 1 3.5 15:44:02 10° S 15:48:15 49° W 15:52:30 10° NNW
Cosmos 883 Rocket 4.4 15:42:53 10° NNW 15:49:06 65° ENE 15:53:51 18° SSE
SJ 16-02 2.0 15:45:03 10° SW 15:49:21 52° NW 15:51:54 23° NNE
CZ-4C R/B 2.7 15:45:03 10° W 15:51:06 70° N 15:53:57 38° ENE
Helios 1A Rocket 3.8 15:49:52 10° S 15:53:55 51° WSW 15:57:59 10° NNW
Cosmos 1898 Rocket 3.4 15:48:57 10° SSW 15:54:13 85° ESE 15:56:35 34° NE
S3M 3.9 15:48:40 10° NNW 15:54:50 89° W 16:00:58 10° S
Terra 4.0 15:58:13 13° NNE 15:58:13 13° NNE 15:59:15 10° N
Cosmos 1833 Rocket 4.3 15:53:01 10° NW 15:58:01 34° WSW 16:03:00 10° S
Cosmos 494 Rocket 4.0 15:53:15 10° NW 15:58:25 79° WSW 16:01:06 29° SSE
Cosmos 1825 Rocket 3.4 15:54:17 10° S 15:58:41 76° ESE 15:59:33 56° NNE
Cosmos 1048 Rocket 4.4 15:54:34 10° NW 15:59:38 62° WSW 16:03:53 15° SSE
Cosmos 372 Rocket 4.2 15:55:14 10° S 15:59:46 48° SE 15:59:46 48° SE
Cosmos 1655 Rocket 4.0 15:55:57 10° SSE 16:01:59 55° E 16:08:03 10° NNE
SKYMED 2 4.1 15:58:17 10° NNE 16:02:35 58° WNW 16:06:51 10° SW
Okean-O 4.3 16:04:51 10° SSW 16:08:55 35° W 16:13:01 10° NNW
CZ-4B R/B 2.9 16:09:33 28° NNW 16:10:37 35° WNW 16:13:39 10° SW
Cosmos 1833 4.4 16:05:04 10° NW 16:10:37 52° NE 16:11:05 51° NE
MOS 1 Rocket 3.7 16:08:25 11° N 16:12:27 55° WNW 16:16:39 10° SW
Cosmos 2082 Rocket 3.4 16:10:18 10° NW 16:15:39 41° WSW 16:20:57 10° S
Cosmos 2098 Rocket 4.4 16:08:41 10° SSW 16:16:10 78° WNW 16:23:06 10° NNE
Cosmos 1937 Rocket 3.5 16:13:12 10° SSW 16:18:34 87° NW 16:20:03 49° NNE
H-2A R/B 3.6 16:16:51 10° SSW 16:21:34 36° W 16:26:25 10° NNW
Cosmos 1844 Rocket 3.3 16:16:49 10° WSW 16:22:22 54° NW 16:24:47 32° NNE
Cosmos 1844 4.1 16:17:14 10° WSW 16:22:54 60° NW 16:25:20 34° NNE
CZ-4 R/B 3.9 16:23:04 10° SW 16:26:12 22° W 16:29:18 10° NW
IRS-1A Rocket 4.3 16:25:44 37° SSE 16:28:13 86° WSW 16:34:06 10° NNW
SJ-6B 3.9 16:29:35 41° NNW 16:29:35 41° NNW 16:32:21 10° NNW
Cosmos 2219 4.3 16:24:23 10° NW 16:29:27 31° NNE 16:29:55 30° NNE
Cosmos 389 Rocket 4.0 16:26:57 10° NNW 16:29:51 36° W 16:29:51 36° W
Cosmos 1842 Rocket 3.8 16:27:39 10° NNW 16:31:46 66° WNW 16:31:46 66° WNW
SeaSat 1 3.8 16:30:43 25° NNE 16:32:29 33° NNW 16:36:52 10° W
Cosmos 2227 Rocket 3.3 16:28:17 10° NW 16:33:18 30° N 16:33:47 30° NNE
SPOT 3 Rocket 3.9 16:34:33 52° NNE 16:34:33 52° NNE 16:38:39 10° NNW
NOSS 3-4 (A) 3.6 16:31:26 10° WNW 16:37:53 79° NNE 16:38:58 65° E
NOSS 3-4 (C) 3.6 16:31:32 10° WNW 16:38:00 79° NNE 16:39:04 65° E
ATLAS 5 CENTAUR R/B 2.1 16:33:31 10° WNW 16:38:00 64° N 16:38:00 64° N
MetOp-A 4.4 16:36:16 31° S 16:38:47 64° WSW 16:44:09 10° NNW
COSMOS 2455 3.3 16:33:00 10° W 16:38:55 54° NNW 16:40:20 44° NNE
Cosmos 1818 3.7 16:34:22 10° WSW 16:39:50 67° NNW 16:40:15 64° N
Cosmos 1269 Rocket 4.0 16:36:10 10° NW 16:41:28 75° WSW 16:41:41 74° SW
ERS-2 4.0 16:45:41 28° WSW 16:45:41 28° WSW 16:47:51 10° SW
Cosmos 2278 Rocket 2.2 16:43:46 10° SW 16:48:46 70° SSW 16:48:46 70° SSW
COSMO-SKYMED 1 4.5 16:46:50 11° N 16:50:25 28° NW 16:54:08 10° WSW
ATLAS 2AS CENTAUR R/B 2.8 16:48:02 10° WNW 16:55:53 77° NNE 16:56:49 68° ENE
Cosmos 2297 Rocket 3.3 16:51:34 10° NW 16:56:14 33° N 16:56:14 33° N
Resurs 01 Rocket 3.4 16:59:35 25° NNW 16:59:35 25° NNW 17:01:26 10° NNW
USA 234 3.5 17:03:07 52° S 17:03:40 54° SSW 17:10:06 10° W
Cosmos 44 4.0 16:58:51 10° WSW 17:02:59 57° W 17:02:59 57° W
Cosmos 2251 Rocket 4.3 17:03:09 10° NNW 17:06:53 45° NNW 17:06:53 45° NNW
Ariane Rocket 3.7 17:08:38 48° WSW 17:08:56 49° W 17:13:55 10° NNW
Cosmos 2266 Rocket 4.0 17:03:35 10° SSW 17:09:48 77° WNW 17:15:57 10° NNE
CZ-2C R/B 3.2 17:05:38 10° NNE 17:12:14 55° WSW 17:16:44 10° SSW
Cosmos 2221 4.2 17:09:57 10° NNW 17:13:21 33° WNW 17:13:21 33° WNW
Cosmos 2263 Rocket 3.6 17:11:51 10° WNW 17:16:45 29° N 17:16:58 29° N
USA 281 3.2 17:21:54 79° WSW 17:21:54 79° WSW 17:28:24 10° NW
SJ 16-02 3.7 17:25:44 10° WNW 17:28:53 19° NNW 17:28:53 19° NNW
Terra 4.3 17:37:06 15° N 17:37:06 15° N 17:37:58 10° N
CZ-4C R/B 2.9 17:33:34 10° WNW 17:39:08 70° WNW 17:39:08 70° WNW
Cosmos 1844 Rocket 4.3 18:02:24 10° WNW 18:06:27 29° NNW 18:06:27 29° NNW
Cosmos 2227 Rocket 4.0 18:12:57 10° NW 18:15:36 27° NNW 18:15:36 27° NNW
ATLAS 5 CENTAUR R/B 4.3 18:18:06 10° WNW 18:19:32 20° WNW 18:19:32 20° WNW
COSMOS 2455 4.4 18:20:00 10° WNW 18:23:30 32° NW 18:23:30 32° NW
Cosmos 2278 Rocket 4.3 18:28:46 10° W 18:30:40 20° W 18:30:40 20° W
Cosmos 2297 Rocket 4.3 18:35:59 10° NW 18:38:02 23° NW 18:38:02 23° NW
ATLAS 2AS CENTAUR R/B 3.9 18:39:22 10° WNW 18:44:15 41° WNW 18:44:15 41° WNW
Cosmos 1943 Rocket 4.4 23:28:09 20° ENE 23:28:09 20° ENE 23:30:01 10° E
Cosmos 2369 Rocket 4.1 23:40:18 25° ENE 23:40:18 25° ENE 23:43:09 10° E
